Date String (YYYY-MM-DD hh:mm:ss) UTC,Instrument flags,Ambient pressure (hPa),Sample flow (lpm),Bypass flow (lpm),Sample temperature (°C),Ambient temperature (°C),ASC tube jacket temperature (°C),LED temperature (°C),Box temperature (°C),Sample RH (%),Span deviation,Mass concentration (μg/m³),Mass concentration (μg/m³),Mass concentration (μg/m³)
DateTimeUTC,F1_M11,P_M11,Q1_M11,Q2_M11,T1_M11,T2_M11,T3_M11,T4_M11,T5_M11,U1_M11,ZSPAN_M11,X0_M11,X2_M11,X1_M11
2021-12-28 02:00:00,,0806.2,4.99,0.00,23.4,22.6,00.0,32.3,25.2,09.2,0000.0,0011.98,0003.18,0002.15
2021-12-28 02:01:00,,0806.2,5.01,0.00,23.4,22.6,00.0,32.3,25.1,09.2,0000.0,0011.38,0003.14,0002.13
2021-12-28 02:02:00,,0806.2,4.99,0.00,23.4,22.6,00.0,32.3,25.1,09.2,0000.0,0011.55,0003.13,0002.13
2021-12-28 02:03:00,,0806.2,5.01,0.00,23.4,22.6,00.0,32.3,25.1,09.2,0000.0,0013.13,0003.16,0002.16
2021-12-28 02:04:00,,0806.2,4.99,0.00,23.4,22.5,00.0,32.3,25.1,09.2,0000.0,0013.28,0003.19,0002.20
2021-12-28 02:05:00,,0806.1,5.00,0.00,23.4,22.5,00.0,32.3,25.1,09.2,0000.0,0012.41,0003.20,0002.22
2021-12-28 02:06:00,,0806.1,4.99,0.00,23.4,22.5,00.0,32.3,25.1,09.2,0000.0,0011.94,0003.22,0002.23
2021-12-28 02:07:00,,0806.1,5.02,0.00,23.4,22.5,00.0,32.3,25.1,09.3,0000.0,0011.83,0003.34,0002.41
2021-12-28 02:08:00,,0806.2,4.98,0.00,23.4,22.5,00.0,32.3,25.1,09.3,0000.0,0011.85,0003.45,0002.71
2021-12-28 02:09:00,,0806.2,5.01,0.00,23.4,22.5,00.0,32.3,25.1,09.4,0000.0,0012.06,0003.56,0002.93
2021-12-28 02:10:00,,0806.2,4.98,0.00,23.4,22.5,00.0,32.3,25.1,09.3,0000.0,0011.47,0003.64,0003.07
2021-12-28 02:11:00,,0806.2,5.02,0.00,23.4,22.5,00.0,32.3,25.1,09.3,0000.0,0011.40,0003.71,0003.16
2021-12-28 02:12:00,,0806.2,4.99,0.00,23.4,22.5,00.0,32.3,25.1,09.4,0000.0,0011.90,0003.83,0003.22
2021-12-28 02:13:00,,0806.2,5.02,0.00,23.3,22.5,00.0,32.3,25.1,09.3,0000.0,0013.18,0003.90,0003.26
2021-12-28 02:14:00,,0806.2,4.99,0.00,23.3,22.5,00.0,32.3,25.1,09.3,0000.0,0013.39,0003.97,0003.30
2021-12-28 02:15:00,,0806.2,5.00,0.00,23.4,22.5,00.0,32.3,25.1,09.4,0000.0,0015.18,0004.07,0003.33
2021-12-28 02:16:00,,0806.2,5.00,0.00,23.4,22.5,00.0,32.3,25.1,09.4,0000.0,0015.73,0004.16,0003.37
2021-12-28 02:17:00,,0806.2,5.01,0.00,23.3,22.5,00.0,32.3,25.1,09.4,0000.0,0016.30,0004.23,0003.40
2021-12-28 02:18:00,,0806.2,5.00,0.00,23.3,22.5,00.0,32.3,25.1,09.4,0000.0,0016.68,0004.20,0003.32
2021-12-28 02:19:00,,0806.3,5.00,0.00,23.3,22.5,00.0,32.3,25.1,09.4,0000.0,0016.65,0004.13,0003.19
2021-12-28 02:20:00,,0806.4,5.02,0.00,23.4,22.5,00.0,32.3,25.1,09.4,0000.0,0016.46,0004.11,0003.07
2021-12-28 02:21:00,,0806.3,4.99,0.00,23.4,22.5,00.0,32.3,25.1,09.4,0000.0,0016.57,0004.12,0002.97
2021-12-28 02:22:00,,0806.3,5.00,0.00,23.4,22.5,00.0,32.3,25.1,09.5,0000.0,0016.61,0004.13,0002.90
2021-12-28 02:23:00,,0806.3,5.00,0.00,23.4,22.5,00.0,32.3,25.1,09.4,0000.0,0016.18,0004.15,0002.86
2021-12-28 02:24:00,,0806.3,5.01,0.00,23.4,22.5,00.0,32.3,25.1,09.4,0000.0,0014.43,0004.15,0002.84
2021-12-28 02:25:00,,0806.3,5.00,0.00,23.3,22.5,00.0,32.3,25.1,09.4,0000.0,0012.92,0004.17,0002.84
2021-12-28 02:26:00,,0806.3,5.01,0.00,23.3,22.5,00.0,32.3,25.1,09.4,0000.0,0011.54,0004.14,0002.82
2021-12-28 02:27:00,,0806.2,4.99,0.00,23.4,22.5,00.0,32.3,25.1,09.4,0000.0,0011.16,0004.12,0002.81
2021-12-28 02:28:00,,0806.2,5.01,0.00,23.3,22.5,00.0,32.3,25.1,09.4,0000.0,0011.24,0004.10,0002.80
2021-12-28 02:29:00,,0806.2,5.00,0.00,23.3,22.5,00.0,32.3,25.1,09.4,0000.0,0010.91,0004.07,0002.80
2021-12-28 02:30:00,,0806.2,4.99,0.00,23.3,22.5,00.0,32.3,25.1,09.4,0000.0,0011.71,0004.05,0002.81
2021-12-28 02:31:00,,0806.3,4.99,0.00,23.3,22.5,00.0,32.3,25.1,09.4,0000.0,0011.46,0004.01,0002.80
2021-12-28 02:32:00,,0806.2,5.00,0.00,23.3,22.5,00.0,32.3,25.1,09.4,0000.0,0011.30,0003.95,0002.80
2021-12-28 02:33:00,,0806.2,4.99,0.00,23.3,22.5,00.0,32.3,25.1,09.3,0000.0,0011.21,0003.92,0002.77
2021-12-28 02:34:00,,0806.2,4.99,0.00,23.3,22.5,00.0,32.3,25.1,09.3,0000.0,0011.89,0003.86,0002.73
2021-12-28 02:35:00,,0806.2,5.01,0.00,23.3,22.5,00.0,32.3,25.1,09.3,0000.0,0012.60,0003.81,0002.69
2021-12-28 02:36:00,,0806.2,4.99,0.00,23.3,22.5,00.0,32.3,25.1,09.3,0000.0,0012.54,0003.77,0002.67
2021-12-28 02:37:00,,0806.2,5.01,0.00,23.3,22.5,00.0,32.3,25.1,09.4,0000.0,0012.33,0003.71,0002.64
2021-12-28 02:38:00,,0806.2,5.00,0.00,23.3,22.5,00.0,32.3,25.1,09.3,0000.0,0012.35,0003.69,0002.62
2021-12-28 02:39:00,,0806.2,5.00,0.00,23.3,22.5,00.0,32.3,25.1,09.3,0000.0,0011.88,0003.69,0002.59
2021-12-28 02:40:00,,0806.2,5.01,0.00,23.3,22.5,00.0,32.3,25.1,09.4,0000.0,0011.41,0003.63,0002.56
2021-12-28 02:41:00,,0806.2,4.99,0.00,23.3,22.5,00.0,32.3,25.1,09.4,0000.0,0010.75,0003.61,0002.53
2021-12-28 02:42:00,,0806.2,5.01,0.00,23.3,22.5,00.0,32.3,25.1,09.4,0000.0,0010.57,0003.65,0002.52
2021-12-28 02:43:00,,0806.3,5.00,0.00,23.3,22.5,00.0,32.3,25.0,09.4,0000.0,0011.58,0003.68,0002.53
2021-12-28 02:44:00,,0806.2,5.01,0.00,23.3,22.5,00.0,32.3,25.1,09.5,0000.0,0012.46,0003.71,0002.56
2021-12-28 02:45:00,,0806.2,4.99,0.00,23.3,22.5,00.0,32.3,25.1,09.5,0000.0,0013.61,0003.76,0002.61
2021-12-28 02:46:00,,0806.2,5.01,0.00,23.3,22.4,00.0,32.3,25.1,09.5,0000.0,0013.03,0003.78,0002.64
2021-12-28 02:47:00,,0806.2,4.99,0.00,23.3,22.5,00.0,32.3,25.0,09.5,0000.0,0013.26,0003.82,0002.68
2021-12-28 02:48:00,,0806.1,5.01,0.00,23.3,22.4,00.0,32.3,25.1,09.5,0000.0,0013.41,0003.87,0002.72
2021-12-28 02:49:00,,0806.1,5.00,0.00,23.3,22.4,00.0,32.3,25.0,09.4,0000.0,0013.22,0003.86,0002.72
2021-12-28 02:50:00,,0806.1,5.00,0.00,23.3,22.4,00.0,32.3,25.0,09.3,0000.0,0014.13,0003.85,0002.71
2021-12-28 02:51:00,,0806.1,5.00,0.00,23.3,22.4,00.0,32.3,25.0,09.2,0000.0,0014.32,0003.89,0002.69
2021-12-28 02:52:00,,0806.1,4.99,0.00,23.3,22.4,00.0,32.3,25.0,09.2,0000.0,0014.11,0003.87,0002.66
2021-12-28 02:53:00,,0806.1,5.00,0.00,23.3,22.4,00.0,32.3,25.0,09.2,0000.0,0014.36,0003.82,0002.63
2021-12-28 02:54:00,,0806.2,5.01,0.00,23.3,22.4,00.0,32.2,25.0,09.5,0000.0,0013.81,0003.84,0002.62
2021-12-28 02:55:00,,0806.1,4.99,0.00,23.3,22.4,00.0,32.2,25.0,09.5,0000.0,0012.92,0003.86,0002.67
2021-12-28 02:56:00,,0806.1,5.01,0.00,23.3,22.4,00.0,32.2,25.0,09.5,0000.0,0011.54,0003.90,0002.70
2021-12-28 02:57:00,,0806.2,4.99,0.00,23.2,22.4,00.0,32.2,25.0,09.5,0000.0,0011.52,0003.91,0002.71
2021-12-28 02:58:00,,0806.2,5.00,0.00,23.2,22.4,00.0,32.2,24.9,09.5,0000.0,0011.49,0003.90,0002.69
2021-12-28 02:59:00,,0806.2,5.01,0.00,23.2,22.4,00.0,32.2,24.9,09.5,0000.0,0011.39,0003.85,0002.66
